TimeCST,TemperatureF,Dew PointF,Humidity,Sea Level PressureIn,VisibilityMPH,Wind Direction,Wind SpeedMPH,Gust SpeedMPH,PrecipitationIn,Events,Conditions,WindDirDegrees,DateUTC
12:53 AM,37.0,25.0,62,29.86,10.0,SSW,9.2,-,N/A,,Clear,210,2014-01-26 06:53:00
1:53 AM,36.0,25.0,64,29.83,10.0,SSW,8.1,-,N/A,,Clear,200,2014-01-26 07:53:00
2:53 AM,33.1,24.1,70,29.81,10.0,SW,4.6,-,N/A,,Clear,230,2014-01-26 08:53:00
3:53 AM,33.1,23.0,66,29.79,10.0,Calm,Calm,-,N/A,,Clear,0,2014-01-26 09:53:00
4:53 AM,30.0,21.9,72,29.78,10.0,WSW,4.6,-,N/A,,Clear,250,2014-01-26 10:53:00
5:53 AM,30.0,21.9,72,29.79,10.0,WSW,8.1,-,N/A,,Clear,250,2014-01-26 11:53:00
6:53 AM,24.1,19.9,84,29.82,10.0,WSW,5.8,-,N/A,,Clear,240,2014-01-26 12:53:00
7:53 AM,21.9,18.0,85,29.83,10.0,SW,5.8,-,N/A,,Clear,230,2014-01-26 13:53:00
8:53 AM,34.0,24.1,67,29.82,10.0,Calm,Calm,-,N/A,,Clear,0,2014-01-26 14:53:00
9:53 AM,48.9,24.1,38,29.81,10.0,North,16.1,21.9,N/A,,Clear,10,2014-01-26 15:53:00
10:53 AM,55.0,25.0,31,29.81,10.0,NNE,16.1,24.2,N/A,,Clear,30,2014-01-26 16:53:00
11:53 AM,59.0,27.0,29,29.79,10.0,NNE,24.2,28.8,N/A,,Clear,30,2014-01-26 17:53:00
12:53 PM,61.0,25.0,25,29.77,10.0,NNE,16.1,23.0,N/A,,Clear,30,2014-01-26 18:53:00
1:53 PM,63.0,23.0,22,29.73,10.0,NE,15.0,-,N/A,,Clear,40,2014-01-26 19:53:00
2:53 PM,64.0,21.9,20,29.72,10.0,North,9.2,16.1,N/A,,Clear,360,2014-01-26 20:53:00
3:53 PM,63.0,21.9,21,29.72,10.0,North,10.4,18.4,N/A,,Clear,10,2014-01-26 21:53:00
4:53 PM,62.1,21.9,21,29.74,10.0,NNE,5.8,-,N/A,,Clear,30,2014-01-26 22:53:00
5:53 PM,54.0,21.0,28,29.78,10.0,NNE,6.9,-,N/A,,Clear,20,2014-01-26 23:53:00
6:53 PM,46.9,19.9,34,29.83,10.0,NNE,3.5,-,N/A,,Clear,30,2014-01-27 00:53:00
7:53 PM,39.9,19.9,45,29.89,10.0,Calm,Calm,-,N/A,,Clear,0,2014-01-27 01:53:00
8:53 PM,34.0,19.0,54,29.92,10.0,Calm,Calm,-,N/A,,Clear,0,2014-01-27 02:53:00
9:28 PM,39.2,26.6,61,29.97,6.0,NNE,24.2,43.7,N/A,,Haze,20,2014-01-27 03:28:00
9:35 PM,39.2,26.6,61,29.98,5.0,NNE,28.8,42.6,N/A,,Haze,30,2014-01-27 03:35:00
9:53 PM,37.0,24.1,59,30.02,8.0,NNE,28.8,43.7,N/A,,Overcast,20,2014-01-27 03:53:00
10:27 PM,33.8,19.4,56,30.06,10.0,NNE,28.8,38.0,N/A,,Scattered Clouds,20,2014-01-27 04:27:00
10:53 PM,32.0,16.0,52,30.10,10.0,NNE,21.9,33.4,N/A,,Clear,20,2014-01-27 04:53:00
11:53 PM,30.9,12.9,47,30.14,10.0,NNE,21.9,35.7,N/A,,Clear,30,2014-01-27 05:53:00